Regional Weather Roundup
Issued by NWS

Home | Current Version | Previous Version | Graphics & Text | Print | Product List | Glossary On
Versions: 1 2 3 4 5 6 7 8 9 10 11 12 13 14 15 16 17 18 19 20 21 22 23 24 25 26 27 28 29 30 31 32 33 34 35 36 37 38 39 40 41 42 43 44 45 46 47 48 49 50
000
ASUS45 KCYS 021010
RWRWY

WYOMING REGIONAL WEATHER ROUNDUP
NATIONAL WEATHER SERVICE CHEYENNE WY
300 AM MST MON MAR 02 2015

NOTE:  "FAIR" INDICATES FEW OR NO CLOUDS BELOW 12,000 FEET
WITH NO SIGNIFICANT WEATHER AND/OR OBSTRUCTIONS TO VISIBILITY.

WYZ001-021100-
YELLOWSTONE NATIONAL PARK

CITY           SKY/WX    TMP DP  RH WIND       PRES   REMARKS
LK YELLOWSTONE   N/A     -7 -11  83 CALM      29.92F
W YELLOWSTONE  NOT AVBL

$$
WYZ002>013-054>058-071-098>099-021100-
NORTHERN WYOMING

CITY           SKY/WX    TMP DP  RH WIND       PRES   REMARKS
JACKSON        FAIR       9   3  78 N10       29.94F WCI  -6
CODY           FAIR       9   7  92 CALM      29.90F
GREYBULL       FAIR      14   8  77 CALM      29.98F
WORLAND        FAIR      15  10  80 S3        29.96F
SHERIDAN       FAIR       4  -1  80 SW3       29.92F
BUFFALO        FAIR      16   1  51 VRB3      29.87F
GILLETTE       FAIR      16   8  71 S20       29.92F WCI  -1
HULETT         FAIR      28  14  54 S13G18    29.97F WCI  18
NEWCASTLE      FAIR      25   9  50 SE16G24   30.04F WCI  12

$$
WYZ014>020-022>026-101>103-021100-
CENTRAL WYOMING

CITY           SKY/WX    TMP DP  RH WIND       PRES   REMARKS
BIG PINEY      FAIR      12   7  80 NE3       29.95F
PINEDALE       FAIR       3   0  85 W7        29.95F WCI  -9
DUBOIS         FAIR      12   9  85 NW17      29.88F WCI  -5
LANDER         FAIR      10   5  80 CALM      29.94F
RIVERTON       FAIR      11   5  77 SW7       29.96F WCI   0
CASPER         FAIR      18  13  80 N6        29.94F WCI  10
DOUGLAS        FAIR      23  16  74 SE15      29.97F WCI  10

$$
WYZ021-027>030-104>119-021100-
SOUTHERN WYOMING

CITY           SKY/WX    TMP DP  RH WIND       PRES   REMARKS
EVANSTON       CLOUDY    25  18  74 E6        29.91F WCI  18
FORT BRIDGER   CLOUDY    24  20  85 CALM      29.96S
ROCK SPRINGS   FAIR      21  16  81 E3        29.91F
DIXON          CLOUDY    31  28  86 CALM      29.96F
RAWLINS        MOCLDY    22  16  78 CALM      29.93F
SARATOGA       CLOUDY    27  23  86 MISG      29.93F
LARAMIE        CLOUDY    18  13  80 S18       29.93F WCI   2
CHEYENNE       CLOUDY    20  16  84 SW14      30.03F FOG     WCI   7
TORRINGTON     CLOUDY    27  16  63 SE13      30.09F WCI  16
PINE BLUFFS    CLOUDY    25  19  80 S14       30.08F WCI  13

$$


USA.gov is the U.S. government's official web portal to all federal, state and local government web resources and services.